TSUBAME (40302 NORAD) Tracking and Keplerian Element Data

This shows tracking and keplerian element data for the satellite.

Feedback or suggestion? Click here.




ElementValue
Catalog40302
NameTSUBAME
Epoch Orbit18385
Epoch Day63.82754402
Epoch Year2018
RAAN133.3887
Inclination97.3461
Eccentricity0.0037686
Argument of Perigee296.5235
Mean Anonmoly199.653
Mean Motion15.16937263
Decay Rate4.23E-06
L11 40302U 14070E 18063.82754402 .00000423 00000-0 24485-4 0 9997
L22 40302 97.3461 133.3887 0037686 296.5235 199.6530 15.16937263183857



Live tracking and technical data element details for TSUBAME (NORAD 40302). TSUBAME can be tracked NOW for your location showing map with azimuth and elevation plus other details from your city location.







IsCatalogInMostPopularTable: catalog: 40302, numindb: 433
Update: records affected: 1



GetName: 40302 TSUBAME

Hit Count: updated at: Fri, 16 May 2025 10:22:32 GMT